Theta_e
330 328 328 326 324 326 322 316 303 307 307 298 297 300 298 302 301 301 301 302 301 305 306 306 305 306 305 305 307 308 307 305 306 301 303 322 332 336 339 339 341 342 345 348 349 350 350 346 347 350 350 350 349 349 349 350 350 350 350 350 349 349 349 349 349 348 348 348 348 347 349 347 347 347 347 346 345 343 343 343 343 342 342 341 341 341 341 340 340 339 340 343 345 345 345 345 345
325 326 325 326 323 322 312 311 305 301 301 297 298 299 299 301 300 301 301 302 304 308 308 307 308 311 312 312 311 310 310 315 312 320 325 327 332 337 340 340 341 343 346 347 348 349 350 351 345 348 349 349 349 349 348 348 349 349 349 349 350 348 349 349 347 348 347 348 348 348 347 346 346 346 346 345 344 343 342 343 342 342 342 341 341 341 341 340 340 339 341 344 346 346 345 345 345
325 325 324 324 320 319 313 312 301 298 297 294 297 299 300 300 300 302 303 305 308 308 310 309 309 308 308 307 306 306 307 317 319 320 325 328 329 333 338 340 343 346 346 347 348 349 350 349 342 347 349 349 349 348 349 348 348 348 348 348 348 348 348 348 348 348 348 348 348 348 347 346 346 346 345 344 342 342 342 342 341 341 341 341 341 341 340 340 339 341 341 344 346 344 344 344 344
327 325 325 324 314 316 309 307 303 299 296 296 297 300 300 301 301 303 305 309 308 307 306 306 306 309 307 304 306 310 310 315 321 323 322 326 330 336 338 339 345 346 347 347 348 349 351 345 342 348 349 349 348 348 348 348 348 348 348 348 348 348 348 348 348 347 348 348 348 347 346 346 346 344 343 342 340 340 342 342 341 341 340 340 340 340 340 340 341 342 345 346 346 344 343 343 342
326 322 325 322 318 308 309 304 302 301 296 298 296 300 301 303 303 304 305 307 307 305 305 306 308 312 311 309 308 307 310 316 318 323 326 331 335 336 338 340 344 345 345 346 347 349 350 341 342 347 349 349 348 348 348 348 348 348 349 349 348 348 348 348 347 347 347 347 347 346 345 345 345 344 342 340 339 338 341 341 341 340 339 339 340 340 339 340 342 343 344 344 345 343 342 342 341
324 321 324 324 312 312 308 302 300 299 301 302 298 300 302 303 303 305 305 307 305 305 305 305 305 307 308 311 314 311 315 310 320 323 327 331 335 337 337 339 342 345 346 347 348 349 351 339 341 345 348 348 348 348 347 347 348 348 348 348 348 347 347 347 348 347 347 347 347 346 345 345 344 343 341 339 337 338 340 340 340 339 339 339 339 339 339 339 340 342 343 342 343 342 341 341 341
321 318 318 315 311 314 304 301 299 300 300 300 301 301 303 303 305 305 304 304 303 303 301 304 306 308 306 311 311 319 321 323 322 326 331 334 336 335 337 339 343 344 346 347 348 349 350 339 344 346 348 349 348 347 347 347 347 347 348 347 347 347 347 347 347 347 347 347 346 346 345 345 344 342 339 337 336 337 339 340 339 338 338 338 337 338 338 338 338 340 341 341 342 340 339 338 338
319 318 314 309 306 309 302 301 300 302 299 299 300 301 303 304 303 306 304 305 303 304 303 306 307 305 304 309 307 317 319 323 327 326 327 331 334 335 337 340 342 343 346 348 348 348 345 338 343 345 346 348 348 347 347 346 346 347 348 347 347 347 347 347 347 347 346 346 346 345 344 344 343 340 338 336 336 337 339 339 339 338 337 337 337 337 336 338 340 341 341 339 338 336 335 335 335
317 314 310 312 303 304 301 300 301 299 299 298 300 301 303 303 303 304 303 303 301 302 305 306 306 302 306 308 307 315 315 319 320 322 330 332 334 336 337 340 341 344 347 346 348 349 349 337 341 344 345 348 348 347 347 346 346 346 347 347 346 346 346 346 347 346 346 347 346 345 344 343 342 339 337 336 335 337 338 339 338 337 337 336 336 335 335 336 336 337 338 336 334 333 332 333 333
313 314 306 308 307 300 300 300 299 300 300 301 300 301 301 301 301 302 304 301 303 302 306 305 303 303 305 306 308 312 314 315 321 329 331 332 335 337 338 341 343 345 346 347 347 349 349 342 338 341 342 345 348 347 347 346 346 345 346 346 345 346 346 346 347 346 346 346 345 344 343 342 341 339 337 335 335 336 338 337 337 337 337 336 336 335 336 334 334 335 335 332 331 330 330 331 331
309 310 312 306 301 299 299 299 300 300 299 300 301 302 302 302 301 301 302 302 302 304 305 303 303 304 305 306 309 311 311 313 325 329 332 333 336 338 339 342 345 347 345 348 347 348 349 347 339 335 337 339 343 346 347 347 346 346 347 347 346 346 346 346 346 346 346 345 344 343 343 341 340 338 336 335 334 335 335 334 335 336 337 336 336 335 335 334 333 334 331 329 328 327 327 329 330
306 308 310 302 300 300 300 300 299 301 300 300 300 302 301 302 302 301 301 301 302 302 305 304 304 308 304 305 309 309 312 317 329 331 331 333 335 337 340 341 344 346 347 347 348 346 348 348 346 336 332 336 339 342 343 346 347 347 347 347 346 346 346 346 346 346 345 344 344 343 342 341 340 339 337 335 333 332 332 332 333 334 334 335 335 334 334 332 332 330 328 326 325 325 327 328 328
310 310 305 302 301 300 300 299 300 301 301 299 301 301 301 301 301 303 303 303 303 303 304 307 307 307 303 304 308 308 310 320 326 330 330 334 335 335 338 340 341 344 345 347 347 345 347 347 347 345 338 330 333 334 337 341 344 345 346 346 346 346 346 346 345 345 345 345 343 342 342 341 340 338 337 335 333 332 331 329 329 331 333 333 333 333 332 330 328 327 325 324 323 324 326 326 326
311 311 307 301 298 300 300 300 299 299 299 302 302 300 301 301 303 303 303 301 302 303 303 304 306 306 305 305 306 307 309 322 326 328 326 334 335 334 336 338 340 341 344 344 341 343 345 346 346 345 345 345 347 338 331 334 339 343 344 343 343 344 345 345 344 344 344 343 342 340 339 338 338 337 336 335 333 332 330 328 328 329 331 331 331 330 329 328 326 325 324 323 323 324 325 326 325
311 306 307 303 299 299 299 298 299 299 300 302 300 300 299 301 301 301 303 302 303 304 304 304 306 304 302 303 305 308 312 324 325 324 327 333 333 333 335 336 336 337 340 338 338 338 339 343 343 345 346 345 345 345 346 344 334 338 340 340 341 342 342 340 340 340 339 339 338 336 335 333 332 332 332 332 332 331 329 327 328 327 329 330 330 329 328 327 326 325 324 324 323 323 324 324 323
311 310 307 302 299 299 299 299 297 299 300 302 299 300 301 301 300 301 302 302 304 305 304 304 305 303 304 305 305 306 318 324 324 323 328 331 331 331 333 334 335 334 336 337 334 330 334 339 343 343 343 343 344 345 345 347 334 333 337 338 338 339 337 336 336 335 332 331 331 331 329 332 329 330 325 330 328 329 327 326 326 326 326 327 328 328 327 327 326 325 324 323 322 321 321 320 319
308 312 301 301 298 297 300 299 299 297 302 301 298 300 301 301 300 301 301 302 304 304 303 306 306 306 306 305 308 309 317 322 320 324 329 328 329 328 329 330 333 332 329 331 334 330 328 332 336 340 341 343 344 344 345 346 343 331 333 331 331 332 333 332 330 325 323 322 326 325 327 335 334 333 332 332 324 330 320 322 325 325 325 325 325 325 325 324 323 322 321 320 318 317 314 313 314
311 303 302 299 301 299 303 301 302 302 302 301 299 301 303 301 301 303 304 303 304 304 303 305 305 305 308 308 309 311 318 321 322 324 327 327 329 328 326 329 331 330 331 330 328 331 331 327 332 335 338 341 341 343 344 347 344 340 345 345 342 334 328 326 334 339 332 338 326 335 339 336 335 335 333 329 331 328 326 321 322 325 326 325 324 324 324 322 321 320 319 318 316 314 312 313 311
306 301 301 298 301 302 304 304 303 302 303 303 302 300 302 303 303 303 302 303 303 302 304 305 305 307 308 308 310 310 319 321 322 326 326 325 327 327 327 327 330 329 329 331 329 328 329 329 329 333 335 337 340 342 343 343 343 345 346 345 341 333 334 339 339 338 341 340 341 341 338 339 336 335 334 331 331 321 325 321 322 325 326 325 324 323 322 320 319 318 317 315 314 312 313 312 312
301 304 298 299 305 302 300 302 302 300 301 301 301 300 300 301 303 304 302 303 302 302 303 303 304 305 307 310 311 312 318 319 321 322 324 324 326 327 328 327 330 328 330 330 329 324 325 328 327 330 334 337 341 342 342 342 343 343 343 344 342 340 339 339 340 339 340 341 341 340 340 339 337 334 324 322 323 327 324 319 319 319 321 321 319 320 319 318 317 316 314 313 313 312 311 310 309
302 301 299 301 299 302 301 300 300 299 299 302 302 299 300 301 302 303 303 301 302 304 306 305 305 306 308 311 311 314 317 317 319 322 323 323 325 328 328 330 329 329 330 324 324 323 323 323 325 328 331 334 339 339 340 341 341 343 342 343 342 341 339 339 339 340 340 340 339 339 339 338 336 332 330 330 329 326 324 323 323 323 322 320 317 318 316 316 316 316 314 312 312 311 309 308 307
304 300 299 299 298 302 299 300 298 299 297 301 300 300 301 301 301 302 302 301 302 305 307 308 308 308 309 310 313 315 316 316 317 319 322 323 324 325 327 329 325 326 322 324 325 322 322 320 321 325 327 331 334 338 338 340 342 341 341 341 341 340 339 339 339 338 339 339 339 340 339 338 335 333 332 332 330 326 324 323 322 321 321 320 319 318 317 317 315 314 312 310 308 307 305 305 304
300 299 299 299 299 301 299 299 297 298 300 301 300 302 301 301 302 302 302 303 305 305 305 306 306 306 307 312 313 313 315 316 317 318 320 323 323 326 325 325 325 323 322 325 323 322 320 321 321 322 326 330 331 333 334 336 337 340 340 341 340 339 340 339 338 338 338 338 338 338 338 337 336 333 332 331 329 326 323 321 320 321 320 319 318 317 316 315 313 311 309 307 306 304 303 303 302
302 300 299 299 298 300 298 300 296 297 299 301 301 300 301 300 300 301 299 304 307 304 304 305 305 303 305 311 312 313 315 316 317 319 321 323 324 325 326 324 323 324 322 322 321 321 321 322 322 323 325 328 332 331 333 334 335 337 341 337 340 338 339 338 338 338 337 337 337 337 337 339 336 334 331 330 328 326 323 322 321 320 320 318 318 316 314 313 310 308 306 305 303 302 301 301 301
301 300 299 299 298 299 298 298 297 297 298 298 299 300 301 301 301 299 301 304 306 306 304 304 305 304 306 309 311 313 315 316 316 318 320 322 324 326 326 325 322 321 321 321 321 321 322 322 322 323 326 326 329 331 333 335 336 336 339 339 339 334 339 340 338 338 337 337 338 337 337 336 336 334 331 330 328 326 324 322 321 320 319 318 317 314 312 310 308 306 304 302 301 300 299 299 299
301 301 300 300 300 300 298 298 297 298 300 299 300 301 300 300 299 299 304 306 305 306 305 306 305 305 306 308 310 313 315 315 317 317 317 318 317 317 319 320 320 320 323 323 321 322 322 321 322 323 325 327 328 329 333 335 335 336 336 337 340 336 340 339 338 338 338 337 336 337 336 336 335 334 331 330 327 324 323 321 320 319 320 317 315 311 310 308 305 303 302 301 299 299 298 298 298
300 300 300 301 299 300 298 301 300 299 301 299 300 301 300 298 299 301 305 304 301 303 305 306 305 305 307 308 309 312 313 315 316 318 315 315 314 315 317 319 319 322 322 321 321 321 321 320 322 322 323 324 326 327 331 334 335 335 337 336 333 338 340 339 336 338 340 338 336 336 336 336 335 334 331 327 326 324 322 320 319 319 319 318 315 311 309 307 305 304 302 300 299 299 298 298 297
299 300 299 300 300 299 299 299 300 301 301 299 301 300 299 299 300 301 305 302 303 304 305 305 305 306 307 307 308 310 311 313 315 315 314 314 314 314 316 317 318 320 318 319 320 320 319 319 320 321 321 323 324 325 330 332 333 334 335 335 332 330 336 338 337 336 335 337 337 337 336 336 334 334 332 329 326 323 321 320 319 318 316 315 313 309 307 306 304 303 302 301 300 299 298 298 298
299 298 300 300 301 301 300 301 299 298 301 299 301 300 298 298 299 304 303 302 302 303 304 305 305 306 307 308 308 308 309 310 311 312 315 317 318 316 316 317 317 317 318 318 318 317 317 317 318 318 320 322 323 323 328 331 332 332 330 331 331 330 328 333 334 333 334 334 334 335 336 335 334 332 331 329 327 324 321 319 318 316 314 313 311 307 305 303 302 301 301 301 299 299 298 297 298
299 301 300 300 300 300 299 298 298 299 300 298 300 294 300 301 302 305 301 302 302 302 304 305 305 306 306 306 307 308 309 309 309 311 313 317 317 316 316 316 316 317 316 316 316 315 316 318 318 319 320 321 322 323 327 328 330 331 330 327 327 329 328 327 328 329 331 331 332 333 332 335 334 334 330 328 326 323 321 320 318 315 312 310 307 305 303 302 301 300 299 299 298 297 296 296 295
300 298 300 298 297 297 299 299 298 299 298 298 300 295 299 302 304 304 299 299 301 302 304 305 305 305 305 306 306 307 309 309 309 310 312 314 314 315 315 315 314 316 316 316 315 316 316 317 317 317 319 320 321 322 325 327 329 330 328 326 325 326 327 324 323 327 327 330 329 329 331 331 333 333 330 326 325 322 320 318 317 313 311 308 306 305 304 304 302 301 299 298 298 297 297 296 296
298 297 296 297 295 298 299 298 298 299 298 299 300 295 298 302 304 300 300 298 299 301 304 305 305 304 305 305 305 307 308 309 309 310 310 311 311 312 313 314 314 314 314 315 315 316 315 316 317 317 318 319 320 321 322 324 324 325 325 319 322 322 322 321 320 320 322 326 328 327 327 328 329 328 327 326 323 320 316 313 312 311 311 310 307 306 305 304 302 301 300 298 295 295 295 294 295
298 296 297 294 295 297 297 297 296 296 298 298 299 297 300 300 302 300 298 299 299 300 302 304 304 303 304 304 305 306 307 307 308 308 309 309 310 310 311 312 313 314 314 314 314 314 315 315 316 317 317 318 318 318 320 320 319 321 320 318 319 318 318 317 316 317 321 321 322 321 322 324 326 324 322 322 320 318 315 312 311 311 310 307 306 305 303 302 301 300 298 297 297 295 295 294 293
296 296 295 297 294 296 294 297 296 298 297 297 298 295 298 302 302 302 298 300 300 300 302 303 304 304 304 304 304 305 306 307 307 308 308 308 309 309 310 311 313 314 314 314 314 314 314 315 316 317 318 318 318 316 315 314 314 316 316 315 313 313 313 314 314 316 316 318 318 317 319 321 321 322 320 317 317 316 312 310 309 309 309 307 305 304 301 301 300 299 296 296 296 295 294 293 292
295 295 294 294 293 293 295 296 296 296 295 296 298 296 298 301 303 304 304 301 301 301 302 304 304 304 304 304 304 304 305 306 307 309 309 308 308 308 309 311 313 313 313 312 313 314 315 315 315 315 316 316 314 313 311 311 311 312 312 311 309 309 309 312 313 313 312 314 315 315 316 318 318 316 315 313 310 310 309 308 308 307 306 305 303 301 300 300 299 297 296 295 297 296 294 294 293
295 296 295 295 293 295 294 298 296 296 297 296 297 296 298 300 302 304 305 303 301 302 302 303 303 303 303 303 304 305 305 305 308 309 310 308 308 308 308 310 312 313 312 311 312 313 313 314 314 314 315 315 312 311 309 309 310 310 308 306 307 308 308 307 308 310 312 311 311 312 312 312 312 312 312 309 309 307 306 306 306 306 305 304 302 300 298 298 297 296 296 297 295 295 295 294 294
296 297 296 295 295 296 298 296 296 295 295 296 298 298 298 299 301 303 304 304 302 301 301 301 303 303 304 304 304 305 305 306 310 308 308 308 308 308 309 310 311 312 311 311 311 312 312 312 312 311 311 311 311 309 308 308 309 309 309 308 307 308 307 307 307 307 307 308 308 309 310 312 310 310 309 309 308 307 306 304 303 303 304 303 301 300 300 299 297 297 296 296 294 293 293 295 294
296 295 295 294 295 293 297 296 295 297 295 297 298 297 298 299 301 302 303 302 301 302 302 303 304 305 305 305 306 306 307 308 306 305 305 306 306 307 308 309 309 309 310 310 310 311 311 312 311 311 308 309 310 309 309 309 310 311 311 310 306 305 305 305 305 304 303 303 306 307 307 307 308 307 308 309 308 307 305 304 303 302 302 303 302 301 299 298 298 297 297 295 296 293 292 295 296
296 295 296 294 295 297 298 296 295 295 294 294 297 296 297 299 301 303 302 302 303 305 304 304 305 306 306 306 306 306 306 306 306 304 305 305 306 306 307 308 309 310 310 310 311 311 311 311 311 311 307 308 309 310 310 310 310 309 311 308 306 302 300 301 301 300 301 302 301 302 304 306 306 305 306 307 308 307 307 306 304 303 302 301 300 298 298 298 298 297 297 295 293 295 294 296 296
296 295 293 293 296 293 293 296 295 295 295 296 295 294 296 299 301 302 304 303 304 306 305 305 305 304 305 306 307 307 306 306 305 304 304 304 305 305 306 307 309 310 310 310 310 310 310 310 311 309 307 308 308 309 310 308 305 303 303 302 300 300 298 297 298 298 299 299 299 299 300 301 301 301 302 303 304 304 305 304 303 303 301 301 300 298 298 298 298 298 297 296 295 292 292 292 295
297 297 296 295 295 295 294 295 295 295 294 293 295 295 297 300 300 302 304 304 302 303 304 304 305 305 306 307 308 307 305 306 306 305 304 303 303 304 305 307 308 309 310 309 309 309 310 310 311 309 307 308 308 307 304 303 301 299 297 297 297 297 298 297 297 296 297 296 296 297 297 298 299 299 300 301 302 301 301 301 301 300 300 300 300 299 299 299 299 299 298 296 296 294 293 294 294
296 297 296 297 297 296 295 294 294 295 295 295 294 290 293 298 298 300 304 302 302 304 302 303 304 305 305 304 305 306 306 306 305 305 305 304 303 304 305 306 307 309 309 310 310 310 310 310 311 309 308 307 306 304 301 301 301 299 297 298 298 297 296 297 297 296 295 296 297 295 295 296 297 298 298 299 300 299 298 300 300 300 299 300 301 301 300 299 299 299 298 298 298 298 297 295 294
293 295 297 297 297 296 295 294 294 291 290 294 294 290 287 297 296 300 302 301 302 305 305 305 306 306 306 305 306 305 305 305 305 305 305 304 304 304 304 305 307 308 309 310 310 310 310 311 310 309 307 306 304 301 300 300 301 302 302 303 303 301 299 299 303 300 297 296 296 295 295 295 296 296 297 298 299 298 298 298 299 300 300 300 301 301 299 299 299 299 299 300 300 299 298 296 295
293 295 294 295 295 294 295 294 294 294 295 296 293 296 290 290 297 301 301 300 301 302 304 306 307 308 307 307 306 306 306 305 305 304 304 304 304 304 303 305 307 308 309 309 309 309 309 310 309 309 308 305 302 301 300 302 301 301 305 306 306 305 303 302 301 299 295 294 294 294 294 294 295 296 296 296 297 296 297 297 298 299 300 300 299 299 299 299 299 300 300 301 300 299 300 299 296
296 292 295 296 296 297 295 295 294 293 291 290 293 296 290 291 296 297 298 297 299 300 303 305 307 309 307 307 307 307 306 305 304 304 303 303 303 303 304 305 307 309 309 308 308 308 309 309 308 308 307 304 301 301 301 302 303 304 308 307 305 307 307 302 298 295 294 294 293 293 292 292 293 294 294 294 294 295 295 297 297 298 298 298 298 299 299 299 298 297 298 298 298 299 301 301 297
293 293 295 295 295 295 296 295 294 293 291 288 292 295 288 290 296 296 296 297 298 301 303 305 307 308 307 307 307 306 304 303 303 303 304 303 303 304 305 306 307 308 309 308 308 308 308 308 307 306 305 303 300 300 301 302 303 305 307 306 305 300 299 297 296 294 293 293 292 291 291 290 290 291 292 293 293 293 294 295 296 296 297 297 297 298 298 297 297 297 297 298 299 299 300 299 298
296 298 298 297 296 295 295 295 294 292 287 290 294 295 292 286 294 296 295 297 300 302 303 305 307 307 307 307 307 307 304 302 302 301 301 303 303 303 304 304 306 308 308 307 307 307 308 307 306 305 305 303 300 299 300 301 301 303 304 304 303 298 298 297 294 292 292 292 291 290 290 290 290 290 291 292 291 292 293 294 295 296 296 295 296 297 296 297 297 297 298 299 299 299 297 297 296
299 298 296 296 294 294 293 292 293 287 285 291 291 294 295 285 292 297 301 300 300 303 303 304 306 306 308 307 304 303 301 301 300 300 300 300 300 301 302 303 305 306 306 306 306 307 307 307 306 305 304 302 300 299 299 299 299 301 302 303 300 297 296 295 295 293 293 293 293 292 291 290 290 290 290 290 290 291 292 294 294 294 294 294 295 296 296 297 297 297 297 297 297 297 296 295 294
297 297 296 289 287 287 284 288 285 286 285 288 288 290 288 288 294 299 299 300 301 301 302 304 306 306 308 307 305 303 302 300 300 301 301 300 300 300 300 302 304 305 305 305 305 306 306 306 306 305 303 302 300 299 299 299 299 299 302 302 300 297 296 297 297 296 295 296 295 293 291 290 290 289 290 290 290 291 291 291 292 292 293 294 295 295 296 296 295 295 295 296 295 294 293 293 292
294 294 292 288 284 283 281 284 283 283 287 287 288 292 287 293 296 300 299 302 303 304 304 304 305 305 307 307 307 303 302 301 302 301 301 301 301 301 301 302 304 305 305 305 305 305 306 306 305 304 305 301 298 298 299 298 299 299 300 299 300 298 298 299 300 295 294 295 295 294 293 292 291 291 291 291 290 290 291 292 293 293 294 294 294 295 294 294 294 294 294 293 292 291 292 292 292
294 300 296 291 289 285 281 283 281 284 287 286 289 286 286 288 295 300 302 303 304 305 305 305 304 305 305 304 303 302 302 302 302 301 301 301 301 301 301 302 304 305 305 305 305 305 305 305 305 304 304 299 298 297 297 298 298 299 298 298 298 297 297 299 300 299 296 294 295 295 295 294 293 293 292 292 290 291 292 292 293 293 293 293 293 292 292 292 293 292 291 290 289 290 290 290 290
296 297 297 291 290 292 285 287 286 284 286 286 283 286 293 294 299 300 299 299 299 299 300 301 301 303 303 303 303 303 301 301 302 301 301 300 301 301 301 302 304 305 305 305 305 305 304 305 305 304 304 300 298 297 297 298 298 298 297 296 296 296 297 297 299 297 295 296 295 295 295 295 295 293 293 292 291 292 291 291 292 292 291 291 291 291 290 290 291 290 289 288 287 289 289 289 289
293 294 289 293 296 295 288 283 283 281 284 283 290 289 293 298 298 299 300 299 299 300 299 299 300 302 303 303 304 304 305 303 301 300 300 300 300 300 301 302 303 304 305 304 304 305 305 304 304 304 304 302 299 297 297 298 297 296 295 295 295 295 296 296 296 295 295 294 293 294 295 295 294 293 292 291 290 291 291 291 290 290 289 289 289 289 289 289 289 289 288 287 287 288 288 288 288
293 289 293 295 298 298 291 285 286 285 282 284 287 286 289 290 287 297 298 298 300 300 301 301 301 302 301 302 304 306 307 304 301 300 300 300 300 299 300 302 303 304 305 305 304 305 305 305 304 304 303 301 300 298 298 297 296 295 294 293 293 294 293 295 294 293 293 292 292 293 293 293 293 292 291 290 290 289 289 288 288 288 288 288 288 288 288 288 288 288 288 287 287 288 288 288 288
296 294 303 293 287 286 291 288 281 281 280 283 287 287 287 290 292 295 295 295 298 300 301 301 301 302 302 303 304 304 306 303 300 299 298 298 298 299 299 300 303 304 305 305 305 305 304 304 305 305 303 303 300 299 298 297 296 296 295 293 292 292 293 294 292 291 291 291 291 292 292 292 291 290 289 289 288 288 287 287 287 287 287 287 288 287 287 287 288 287 287 286 287 288 287 286 286
296 296 295 297 294 290 287 288 288 288 283 282 284 286 286 296 296 297 298 299 301 302 302 301 301 302 303 304 304 305 304 301 300 299 298 298 298 298 299 300 301 303 304 305 305 305 304 304 304 304 304 302 300 298 296 295 295 295 294 293 292 292 292 291 290 289 289 290 291 291 291 290 290 289 289 289 288 287 287 286 287 287 287 287 286 286 287 287 287 287 287 286 286 286 286 285 284
291 293 292 292 291 294 294 290 288 287 284 284 283 283 289 297 301 299 300 300 301 302 303 305 304 305 305 304 305 305 305 303 301 299 298 298 297 298 298 299 301 303 304 304 304 304 304 304 302 303 302 299 298 297 296 295 294 294 293 292 291 291 290 289 288 289 289 289 290 291 291 290 289 288 288 288 287 287 287 287 286 286 286 285 285 285 286 286 287 286 286 285 285 285 284 284 284
295 293 291 293 289 287 285 284 289 286 287 284 283 283 290 299 298 301 301 302 303 304 304 305 306 305 303 303 303 302 304 301 299 298 297 297 297 297 298 299 300 301 302 302 303 303 303 303 301 300 301 299 298 298 296 296 294 294 293 291 291 291 290 289 287 287 288 289 289 289 290 289 288 288 288 287 287 287 286 286 286 285 285 285 285 285 285 286 285 284 284 285 284 284 284 283 283
Wind_Speed
6 3 2 2 2 3 3 3 3 3 3 3 1 2 4 1 2 2 3 4 4 3 1 2 3 6 4 3 6 5 2 4 4 4 4 3 2 2 2 1 1 3 6 6 5 6 6 5 4 5 9 9 9 9 10 10 10 10 10 11 10 10 11 12 12 12 13 14 14 14 14 15 15 15 16 17 17 17 17 17 18 18 18 18 18 18 17 16 16 16 16 16 17 17 18 19 19
3 2 1 2 1 1 2 3 2 2 1 3 3 1 4 3 2 4 6 2 4 3 2 3 4 4 4 3 2 2 3 2 4 4 3 3 2 4 2 0 1 6 7 6 6 7 7 6 4 5 9 9 9 8 9 10 10 10 11 11 11 10 11 11 12 12 13 13 14 15 14 15 15 15 16 16 16 17 17 17 17 17 18 18 18 18 17 17 16 16 17 17 18 18 18 18 19
2 3 3 2 2 1 4 2 2 2 0 2 3 1 3 5 3 5 4 4 7 6 5 5 4 2 2 2 5 3 2 1 2 2 2 3 6 4 2 2 4 7 7 6 6 7 6 6 4 7 9 9 8 8 8 9 10 10 10 11 11 11 10 11 11 11 12 13 14 14 15 15 15 15 16 16 16 17 17 17 17 17 18 17 18 18 17 16 17 17 17 18 19 18 19 19 20
3 2 2 1 2 2 1 1 2 1 2 3 1 4 5 4 4 5 5 9 8 5 3 6 4 2 3 6 1 1 1 2 1 3 4 5 2 4 3 3 5 6 7 6 6 7 6 7 3 6 10 10 10 9 8 8 9 10 10 11 11 11 11 11 11 11 12 13 13 14 14 15 15 16 16 16 16 17 17 17 17 17 18 17 17 17 18 18 18 18 18 19 19 19 20 19 20
2 1 2 2 2 3 1 2 1 2 1 1 3 5 5 3 7 7 7 5 4 1 0 2 2 2 2 3 2 3 3 4 3 1 2 3 2 3 1 4 5 6 7 7 7 6 7 7 4 3 9 10 11 10 8 8 8 9 9 11 11 11 12 12 11 11 12 13 13 14 14 15 15 16 16 16 16 17 17 17 17 17 17 18 17 17 18 18 19 18 18 20 20 20 20 19 19
2 0 4 2 1 2 2 3 3 1 4 1 1 5 7 5 8 9 8 6 2 3 1 2 3 3 3 1 1 1 1 3 4 3 1 4 3 1 0 4 5 8 8 8 6 6 7 7 4 2 10 10 10 10 9 8 7 8 10 11 11 11 11 12 12 12 13 13 13 14 14 14 15 15 15 16 16 17 17 17 17 17 18 17 18 17 18 18 18 19 19 20 20 20 20 20 20
1 2 2 4 4 2 1 1 1 1 3 3 3 4 6 6 7 9 8 6 2 1 2 1 1 2 3 3 2 2 2 2 3 3 1 3 2 2 2 6 5 8 8 8 7 6 8 5 3 2 5 9 11 10 9 9 8 7 9 11 11 11 11 11 12 12 12 13 13 14 14 14 15 15 15 15 16 16 17 17 17 17 17 17 17 18 19 18 18 18 19 20 20 20 20 19 19
1 3 2 2 3 2 1 1 1 1 3 2 3 1 5 7 5 8 9 7 6 5 5 2 2 5 4 1 1 4 1 2 2 2 1 1 2 2 3 7 7 8 8 7 7 6 7 4 3 2 2 9 9 10 10 10 9 6 6 10 10 11 11 11 12 12 12 13 13 14 14 14 14 15 15 15 15 16 16 17 17 17 17 17 17 17 19 18 19 19 20 20 19 18 18 18 17
4 3 1 2 3 2 2 1 2 1 1 2 2 3 3 2 4 5 8 3 2 2 3 5 3 4 5 5 1 4 1 2 1 1 1 1 1 2 4 7 8 8 7 8 6 6 6 5 3 1 2 6 8 10 11 11 9 7 7 9 11 11 11 12 12 12 12 12 13 13 14 15 15 15 15 15 15 16 16 16 16 16 17 17 17 17 17 17 18 18 19 18 18 17 17 17 17
3 3 3 1 1 3 1 2 3 2 1 2 1 3 5 4 4 4 7 5 2 3 3 3 0 4 2 4 3 4 3 4 1 2 1 1 2 3 6 8 8 8 8 6 7 7 6 6 2 3 1 2 6 9 11 11 10 9 8 9 10 10 10 11 12 12 12 12 13 13 14 15 15 15 15 15 15 15 16 16 16 16 16 16 16 17 17 18 18 18 18 18 17 17 17 17 17
2 3 2 3 3 2 4 3 2 3 2 1 3 3 2 6 5 5 2 1 3 2 5 2 4 4 3 2 1 4 2 3 5 5 3 2 2 4 7 6 6 7 9 7 6 7 7 8 6 4 2 4 2 3 9 9 10 9 7 10 10 10 10 11 11 12 12 13 13 14 14 15 15 15 15 15 15 15 15 16 16 16 16 16 16 16 17 17 17 17 17 17 17 17 17 17 17
3 1 2 3 3 3 3 2 4 2 1 2 4 6 3 7 4 5 5 5 6 4 5 9 1 3 4 1 3 4 3 5 5 3 2 2 3 4 6 4 5 5 8 8 6 6 7 8 8 6 2 3 2 3 5 7 8 7 8 10 10 9 10 11 11 11 12 12 13 13 14 15 15 15 15 15 15 15 15 15 15 16 16 16 16 17 17 17 17 17 17 17 17 17 17 17 17
1 1 4 3 1 2 3 2 3 1 2 6 6 4 4 7 8 5 6 0 4 5 5 9 3 3 3 2 3 3 5 6 4 3 1 3 4 3 4 4 4 4 6 7 7 6 7 7 7 6 5 2 6 5 3 4 6 7 9 9 9 8 9 10 10 10 10 12 13 13 13 13 14 15 16 15 15 15 15 15 15 16 16 16 16 17 17 17 17 17 17 18 18 18 18 18 17
1 1 2 3 1 1 3 1 2 5 5 5 3 5 7 4 5 0 4 6 6 6 4 2 2 2 3 1 4 4 5 7 4 2 1 4 3 3 4 4 4 4 4 3 5 4 6 6 5 6 6 6 7 6 5 3 3 6 9 9 9 8 7 8 8 9 10 11 11 12 12 12 13 15 15 15 15 14 14 15 15 15 16 16 16 17 17 17 17 18 18 18 18 18 18 18 17
2 1 3 3 3 2 1 4 5 6 2 8 6 7 5 2 1 2 6 7 4 5 3 1 2 3 2 7 4 4 7 9 6 3 2 5 4 3 4 3 5 5 5 3 3 4 4 5 6 6 7 5 6 6 6 5 2 4 8 9 9 7 7 8 9 9 10 11 11 12 12 12 13 13 13 13 13 12 12 12 13 15 16 16 16 17 17 17 17 17 18 18 18 18 18 18 17
2 2 2 3 3 4 4 2 1 2 2 6 4 0 7 3 2 3 2 3 2 2 2 4 3 3 4 3 4 4 7 9 4 3 5 7 5 4 4 4 4 5 4 4 3 2 3 4 5 4 5 6 5 5 5 7 4 3 8 9 9 8 9 9 10 9 10 11 12 13 13 13 12 11 12 12 11 11 11 12 12 15 16 16 16 16 16 17 17 17 17 18 18 18 18 18 17
0 2 4 2 4 4 4 5 7 4 4 4 5 7 9 5 2 2 2 2 3 4 4 1 4 0 2 3 4 4 5 5 5 5 7 6 5 4 4 3 3 4 2 2 3 3 3 3 4 5 5 7 6 7 6 5 5 5 7 9 11 9 8 9 10 10 10 11 11 12 11 11 10 10 10 11 11 11 11 12 13 15 16 16 17 17 17 17 17 17 17 18 18 18 18 18 17
2 4 3 5 1 6 6 7 8 3 2 8 8 9 7 6 4 3 3 3 1 2 5 3 2 5 1 3 2 3 5 7 7 9 9 9 7 5 4 6 6 6 5 4 2 3 3 3 2 3 4 7 6 6 6 5 5 6 8 9 8 8 8 9 8 7 8 8 10 10 9 8 8 8 8 11 10 11 11 12 13 14 16 16 16 17 18 17 17 17 17 16 14 12 11 8 10
1 2 2 4 3 1 2 2 6 2 2 6 7 4 5 3 8 5 6 6 6 6 7 5 7 7 6 4 4 6 7 9 10 11 12 12 11 13 7 6 9 8 8 6 4 4 2 3 3 4 3 4 7 7 6 6 7 6 6 7 7 8 8 8 7 7 8 9 9 9 8 8 8 8 6 7 8 10 11 13 13 14 16 16 16 17 17 17 17 16 15 13 12 11 8 7 6
2 3 4 3 1 2 1 2 6 2 1 7 7 4 3 2 2 5 5 3 3 10 8 6 9 11 11 9 7 9 10 10 11 12 13 12 11 12 12 9 11 7 9 6 6 3 2 2 2 2 3 4 7 6 6 6 7 7 6 6 6 7 7 7 8 8 8 9 8 7 8 8 8 6 10 15 12 10 9 12 14 14 15 14 15 14 16 16 16 14 11 9 8 7 6 7 6
2 3 3 1 2 3 2 3 2 2 4 3 4 4 4 3 2 5 3 5 10 10 11 10 11 12 9 11 10 10 11 11 13 12 13 13 12 9 11 11 10 9 7 3 3 4 3 2 2 2 2 3 7 6 6 6 6 6 6 6 7 7 7 7 6 7 8 8 8 7 7 7 7 7 8 7 7 8 9 9 9 8 8 9 10 10 9 8 8 7 7 8 7 7 7 7 7
2 3 4 2 1 1 3 1 3 1 2 2 4 7 6 5 1 6 6 10 8 7 8 9 11 3 8 12 11 10 11 12 13 13 14 15 15 13 10 9 4 4 4 6 6 5 4 2 1 1 2 3 3 5 7 6 6 6 6 7 7 7 7 7 7 6 6 7 7 6 7 8 7 7 7 6 7 8 8 6 6 7 8 8 7 7 7 7 7 7 7 7 7 7 7 7 8
2 1 0 0 2 2 2 1 1 3 3 5 6 3 5 7 4 4 8 15 1 5 5 1 1 2 2 7 12 11 12 14 14 16 15 15 15 14 12 8 8 7 6 6 5 4 4 3 3 2 2 3 3 2 3 4 5 7 7 7 8 8 7 8 8 7 7 7 7 7 7 8 9 7 7 6 6 7 7 6 6 6 6 6 5 6 7 6 6 7 7 7 7 7 8 8 9
3 4 3 2 1 2 1 0 3 3 3 3 2 2 5 5 9 2 8 13 9 3 2 1 1 1 3 8 12 13 14 15 15 14 14 14 14 15 12 11 7 5 6 6 5 5 5 5 4 4 4 3 3 3 4 4 5 7 8 7 8 8 8 8 8 7 8 7 7 8 9 8 9 8 7 7 7 6 6 6 6 6 5 5 5 5 7 6 7 7 7 7 8 7 8 8 7
3 5 3 3 1 0 1 1 3 2 2 2 1 5 3 3 2 2 10 11 12 8 3 2 1 3 4 7 10 11 11 11 12 12 10 9 10 10 8 6 6 5 8 7 6 6 6 5 5 5 4 5 4 4 5 4 5 4 7 8 9 9 9 7 8 8 8 8 8 9 9 8 7 8 7 8 6 6 6 6 5 5 5 4 5 5 7 7 6 7 6 6 6 7 7 7 7
3 3 3 3 2 2 3 3 3 2 1 2 4 4 2 0 2 9 17 7 3 2 3 3 3 5 6 8 10 11 11 13 11 11 12 8 6 7 9 8 7 9 10 8 6 6 4 5 6 5 4 3 3 4 5 5 4 5 5 6 8 9 9 9 7 8 9 8 9 9 9 7 7 8 8 7 6 7 7 6 6 5 4 4 5 7 6 6 7 8 7 7 6 7 8 7 7
1 4 1 3 2 1 1 1 2 0 2 1 4 2 2 1 1 9 3 2 2 3 6 3 4 7 7 6 7 9 10 11 12 9 7 8 8 10 10 9 10 12 8 8 7 5 4 4 4 4 4 3 3 5 6 6 4 6 6 3 2 8 10 10 8 7 5 8 10 11 10 9 8 8 8 9 7 8 8 8 7 6 4 4 4 6 5 6 7 8 7 7 6 8 8 6 7
2 1 3 3 2 3 2 2 2 1 2 2 3 3 0 2 2 13 3 1 1 4 6 6 5 6 6 8 7 7 7 7 7 8 12 13 11 11 12 11 12 11 9 9 6 5 4 6 5 6 6 5 6 7 6 7 8 7 5 4 3 2 3 9 9 9 7 7 10 11 10 10 10 8 11 10 10 9 9 10 9 8 7 4 5 6 6 6 8 8 7 6 7 8 8 7 6
2 2 4 1 1 3 3 3 1 2 2 2 1 6 8 8 12 15 3 1 1 3 7 6 6 6 6 6 6 6 8 8 7 9 13 12 9 9 12 10 10 10 6 7 6 5 6 5 6 6 6 7 7 8 7 9 10 8 4 4 4 5 2 5 7 7 8 8 7 8 8 11 10 9 10 10 10 10 10 10 10 9 7 6 4 7 8 7 8 8 7 6 7 8 9 7 6
2 4 3 3 3 5 3 1 1 3 1 0 1 7 5 14 19 8 3 2 1 5 8 7 6 6 6 6 6 7 7 8 10 12 10 9 9 9 11 10 9 8 7 6 7 7 6 3 3 4 5 7 8 7 7 10 10 9 6 3 4 5 5 4 5 5 6 7 7 9 6 8 11 10 10 9 10 10 9 10 12 10 8 9 8 8 7 7 7 9 8 8 8 8 8 7 7
2 2 2 2 2 2 2 1 2 5 2 1 2 8 7 3 7 1 3 1 6 10 10 7 6 6 5 6 7 8 9 10 11 10 10 8 7 6 9 8 9 9 6 7 9 9 8 6 5 5 6 8 8 9 9 11 9 6 6 5 5 5 5 5 3 6 7 8 8 8 10 7 9 11 12 11 10 10 12 12 13 10 8 9 8 7 7 7 8 9 8 9 8 7 7 7 7
2 2 4 2 3 1 2 3 3 4 3 1 4 9 12 8 5 5 2 1 3 9 9 7 6 6 6 6 8 9 9 8 10 9 9 9 8 8 9 9 9 10 9 8 8 7 8 8 8 7 7 8 10 9 10 8 3 4 5 4 4 4 4 4 4 2 4 5 8 7 9 9 9 10 11 11 8 7 8 7 8 9 10 7 6 7 7 8 8 8 8 8 9 8 8 8 7
2 3 1 1 0 2 6 3 1 2 2 2 9 8 3 3 1 3 2 1 3 7 10 8 9 8 7 8 7 8 8 9 9 11 11 10 10 9 9 10 11 11 10 10 10 9 9 9 9 10 10 10 9 7 7 6 3 4 5 5 4 4 5 4 4 4 4 4 4 6 7 8 9 10 7 8 11 10 9 7 8 10 10 9 7 6 5 5 8 8 8 7 8 9 9 9 8
4 2 4 1 4 1 3 4 2 1 3 6 8 7 14 10 3 4 3 3 2 7 10 10 9 7 7 7 8 9 10 9 11 12 14 12 9 11 9 9 11 11 10 10 9 9 9 9 9 9 10 9 8 8 6 4 3 3 4 4 4 3 2 2 2 3 4 4 5 6 7 7 7 10 9 8 7 9 9 9 7 8 9 9 8 7 6 5 6 8 10 7 8 9 9 9 9
2 4 4 4 2 6 8 5 3 2 1 6 7 12 17 16 15 11 6 5 7 12 11 12 11 9 8 8 9 11 10 11 13 10 12 13 11 11 10 10 10 10 8 10 9 9 8 9 9 9 8 9 6 5 5 4 5 4 4 5 4 3 3 2 1 2 3 3 5 7 6 6 7 7 7 8 7 7 9 9 9 7 6 7 7 7 7 6 6 7 10 10 8 8 9 8 8
2 4 1 1 4 4 6 3 3 3 4 7 11 12 14 16 15 13 10 7 10 14 13 12 12 11 10 11 11 10 10 13 9 6 9 10 10 10 10 9 10 9 9 9 10 9 9 10 10 8 8 8 6 6 5 4 4 5 5 3 3 2 3 3 1 2 4 4 4 6 5 4 5 6 6 6 9 7 8 8 9 7 7 7 9 9 8 6 8 11 11 11 11 9 8 8 8
6 4 1 3 5 9 5 1 2 1 4 12 14 14 16 18 16 16 15 8 9 12 14 14 12 11 10 11 13 13 13 13 4 6 8 10 11 10 10 10 10 10 10 11 11 11 12 9 11 10 8 7 7 6 6 7 6 7 6 6 5 5 4 4 4 2 2 4 4 4 6 5 6 7 7 7 9 10 8 9 8 7 6 8 8 9 11 9 8 9 10 9 12 12 8 7 8
1 1 2 4 3 9 3 1 3 1 3 6 4 8 14 16 15 15 15 13 17 17 17 17 16 13 11 13 15 15 13 4 5 5 8 9 9 12 11 10 12 13 12 12 13 12 12 13 12 11 7 7 7 8 7 6 6 7 6 6 5 5 5 4 4 3 2 3 4 4 4 6 6 6 7 8 9 10 10 10 10 10 8 8 8 9 8 8 9 10 10 10 7 10 9 8 7
3 4 2 3 7 5 13 4 1 2 3 11 10 12 13 13 14 15 15 17 17 17 17 18 15 14 12 12 15 15 7 10 7 9 8 9 11 12 11 11 12 13 13 13 13 12 13 14 12 11 7 8 7 8 8 7 4 2 5 6 5 4 3 3 3 3 3 3 3 4 3 5 6 5 5 7 8 9 10 10 9 10 9 9 10 9 9 10 10 11 12 12 10 6 6 3 3
4 4 4 7 2 1 4 4 1 3 5 5 6 13 14 16 17 20 20 18 17 15 14 14 13 15 18 19 14 8 11 10 10 11 11 10 11 11 11 12 13 13 12 12 13 14 13 13 13 10 9 8 8 8 7 5 5 6 6 6 5 3 4 4 5 4 4 4 4 3 3 3 4 5 4 5 4 7 9 9 8 8 7 7 10 12 10 10 11 10 9 9 11 11 7 5 1
6 7 7 6 5 7 7 4 4 4 2 1 9 11 12 12 11 9 9 10 11 16 12 14 16 16 18 14 10 12 14 9 9 9 10 11 12 14 15 13 12 13 13 12 13 13 12 16 14 11 9 9 8 7 6 8 8 7 7 7 6 7 6 5 5 3 2 3 4 4 2 2 4 5 5 5 7 7 6 8 9 8 10 8 7 9 10 11 11 10 11 11 11 12 10 6 3
4 7 11 10 8 9 4 3 7 6 4 3 5 8 4 2 6 8 5 4 9 7 7 11 13 13 12 13 15 11 11 12 12 11 11 12 12 11 11 13 14 13 13 12 12 13 14 15 14 12 8 8 9 9 8 8 8 9 9 8 8 5 6 6 7 8 7 6 6 5 4 3 4 5 5 7 7 7 8 8 9 10 8 8 8 9 9 9 10 10 10 10 10 8 10 8 5
2 2 7 12 8 4 5 2 1 4 5 2 4 6 10 4 10 8 4 7 15 8 7 11 12 10 7 9 9 8 8 8 9 10 8 10 11 11 12 13 14 14 13 11 11 12 15 14 14 11 9 8 8 9 9 7 8 8 11 9 8 8 8 6 5 4 5 5 5 7 6 5 4 6 6 7 8 6 8 7 8 9 10 9 7 8 9 10 9 9 8 8 8 8 9 9 8
4 3 2 2 5 7 6 4 6 7 4 4 4 4 10 12 8 10 12 15 16 14 14 14 13 11 8 8 9 9 7 7 6 9 10 10 11 13 15 15 14 14 12 12 12 13 15 17 15 15 9 8 8 9 11 9 8 7 9 9 9 9 9 10 9 7 4 4 5 6 6 5 4 4 6 6 7 8 7 7 6 6 7 6 7 8 9 8 8 5 7 5 6 7 9 8 9
0 1 1 4 3 3 3 3 2 2 5 7 5 4 4 9 3 2 2 8 12 14 14 14 15 9 4 6 8 6 6 6 7 7 9 10 11 12 12 13 13 13 12 13 13 14 14 15 13 11 10 10 9 11 11 10 9 10 9 9 8 6 7 6 6 6 6 5 6 4 5 5 4 4 4 5 6 6 6 8 8 7 7 8 7 7 7 8 10 10 8 7 8 8 7 6 8
2 5 6 6 5 5 1 2 0 2 3 9 8 10 5 16 6 5 1 5 10 12 13 14 14 4 3 6 6 4 3 4 5 7 6 8 9 10 10 10 12 13 12 12 13 14 14 14 12 12 11 9 9 11 10 11 9 9 9 8 10 7 5 7 6 7 6 6 5 5 5 4 4 4 4 5 6 6 6 7 7 9 9 9 7 7 7 8 8 8 9 9 8 8 6 6 7
10 6 8 4 4 2 2 2 1 2 7 9 12 16 11 11 7 7 9 8 10 10 9 9 8 6 7 7 5 3 3 4 4 4 5 5 6 8 10 12 12 12 11 13 14 14 14 15 13 14 12 9 10 11 11 11 8 7 7 8 9 8 9 10 8 6 6 6 6 6 5 5 5 4 5 5 4 7 6 7 8 8 7 7 7 8 9 9 9 9 8 8 8 8 6 5 4
5 3 3 4 2 2 2 1 1 3 10 1 2 8 11 12 4 5 5 1 6 8 9 9 7 6 4 0 1 1 1 2 2 4 5 6 6 7 9 11 13 14 13 14 15 15 16 16 13 14 12 11 11 10 11 9 8 7 6 8 9 8 10 9 11 11 10 10 9 8 6 5 5 5 5 5 5 6 6 6 5 6 6 7 8 8 8 8 8 7 7 7 6 4 4 5 5
2 4 5 4 2 1 3 2 4 6 8 2 2 1 6 17 16 3 4 8 12 10 9 8 7 8 5 3 3 1 0 1 3 4 4 6 7 9 11 12 12 14 14 16 16 15 15 16 16 17 14 13 11 11 12 11 8 8 9 8 8 9 8 10 11 11 11 10 9 9 9 7 6 6 7 7 6 9 7 7 7 7 7 7 8 7 7 7 6 6 5 5 4 5 5 5 5
5 9 8 5 5 4 6 1 2 5 5 2 1 3 10 8 11 18 21 19 14 9 10 10 9 11 11 3 3 2 2 3 3 4 5 7 7 8 10 11 13 13 14 15 16 15 15 15 18 17 17 12 10 11 12 11 11 9 8 8 8 8 8 9 9 7 8 7 8 11 11 10 9 10 9 8 7 8 7 6 7 7 6 6 6 6 6 5 5 5 5 5 5 4 4 4 5
12 3 9 6 5 3 3 4 6 6 2 1 3 0 4 2 1 1 12 12 9 8 9 7 8 12 11 5 7 8 7 6 5 6 6 7 7 9 9 11 11 12 14 15 15 16 15 16 18 18 18 12 12 11 10 11 10 9 8 7 6 7 8 6 6 9 8 7 8 8 8 8 8 8 8 7 8 8 8 7 7 6 6 6 6 6 5 6 5 5 5 6 5 4 5 5 5
4 0 3 1 8 4 8 2 2 2 4 3 4 7 2 6 5 3 3 5 8 5 7 8 12 12 9 9 10 9 8 9 8 7 6 8 8 9 9 10 11 12 14 14 17 16 16 17 17 18 17 13 13 12 11 12 9 8 8 9 8 8 6 6 7 7 7 4 7 8 8 8 7 7 7 8 8 8 8 8 7 6 6 6 6 6 7 6 6 6 6 6 6 3 6 7 5
7 6 7 5 5 5 1 2 3 1 1 11 3 9 9 9 14 16 15 11 9 6 7 7 12 14 7 9 12 11 7 6 5 7 7 8 9 9 10 11 11 12 13 15 17 17 18 17 17 19 19 14 14 13 13 11 9 9 9 8 9 9 8 8 7 8 10 5 3 4 5 7 6 7 6 7 8 7 7 8 7 7 6 6 7 6 6 7 7 7 6 7 7 6 6 6 5
9 6 7 3 0 5 3 6 2 1 6 6 3 8 13 2 12 5 2 8 12 12 13 12 13 10 6 10 10 10 3 3 5 7 7 8 8 9 9 9 11 12 13 14 16 16 16 17 18 19 19 15 14 13 13 11 10 11 9 9 8 9 8 10 8 8 7 8 6 5 4 6 6 5 6 6 8 8 7 7 7 7 6 7 7 6 7 7 7 6 7 6 6 7 7 5 5
2 1 3 8 5 6 5 1 6 4 5 6 3 5 13 11 16 4 6 9 10 11 12 13 15 13 12 13 12 10 7 2 5 7 7 7 8 9 10 10 11 11 12 13 14 16 15 16 17 18 19 16 14 11 11 9 9 9 9 8 9 8 7 6 6 6 6 7 8 8 7 7 6 6 7 7 8 8 7 7 6 7 7 7 7 7 7 7 7 7 6 6 6 6 6 6 5
2 1 3 4 3 2 7 7 1 1 7 1 6 1 14 8 8 5 10 12 9 10 9 11 13 10 10 10 8 8 5 6 6 5 5 5 6 8 9 10 11 12 12 12 13 14 17 17 17 17 17 13 12 12 10 11 10 8 8 7 7 8 8 7 6 7 7 7 8 8 8 8 8 7 7 8 8 9 9 9 7 7 8 7 8 7 7 7 7 6 6 6 6 6 7 7 6
5 7 8 4 3 4 3 1 2 3 2 3 5 11 13 7 8 7 9 12 13 13 12 5 4 8 7 6 6 5 6 5 3 3 4 5 6 7 8 9 9 10 10 11 13 16 16 16 15 18 18 14 14 13 12 11 10 11 11 11 9 9 9 6 8 8 9 9 7 8 8 8 8 8 8 8 7 9 9 8 9 8 8 8 8 8 7 7 6 7 6 6 7 7 8 6 6
13 16 15 17 12 8 6 6 3 1 4 5 3 12 17 2 1 7 8 10 10 12 10 7 8 8 3 4 5 4 5 1 2 3 3 5 6 7 7 7 7 9 11 14 14 14 16 17 14 12 15 13 14 14 13 12 11 10 12 10 10 9 8 8 10 8 8 8 8 8 8 8 9 8 8 7 8 7 8 9 8 8 8 8 8 7 7 6 7 8 7 5 6 7 8 7 7
Wind_Direction
303 308 285 240 243 246 262 22 237 83 256 60 101 228 97 14 347 188 166 156 183 89 80 124 120 153 227 7 347 17 56 281 5 296 30 61 46 50 104 356 0 126 151 142 142 145 147 90 45 120 114 111 112 115 113 112 111 109 109 109 109 106 107 105 105 104 103 101 97 91 86 81 75 71 67 67 66 66 68 69 71 73 74 75 77 80 84 85 87 88 87 86 83 83 82 82 81
288 303 227 227 255 246 142 299 70 193 96 146 95 297 92 137 210 187 145 171 27 90 127 132 130 90 69 39 20 339 165 21 3 39 77 73 106 115 108 290 181 160 151 143 146 145 140 126 68 122 122 116 119 117 110 110 109 111 112 110 107 107 108 108 105 103 96 94 95 95 88 80 77 73 71 69 68 69 70 70 71 73 74 75 76 78 80 84 86 88 91 86 83 86 86 85 83
306 298 191 234 143 350 113 272 236 46 285 61 109 153 108 172 183 140 72 75 101 104 120 105 111 132 218 228 220 262 80 55 105 110 68 118 157 124 120 143 177 168 155 151 153 151 147 123 93 139 129 122 122 122 115 114 113 114 115 114 110 108 105 104 103 102 101 99 94 90 86 82 74 72 72 71 70 69 70 71 72 73 74 74 75 79 83 87 88 87 88 85 82 82 79 76 76
270 350 269 237 140 249 160 97 50 227 54 28 139 133 182 172 142 109 93 109 114 122 139 147 190 48 280 217 357 175 56 132 78 131 137 183 52 80 127 157 179 175 163 160 165 155 152 131 120 147 136 132 135 134 127 122 121 120 116 110 112 114 111 105 102 104 101 96 94 92 88 82 76 73 73 72 72 71 71 71 73 75 76 75 77 80 84 86 86 87 84 85 85 81 78 78 79
243 41 305 262 250 105 2 42 56 257 61 177 55 138 183 183 132 133 127 133 134 178 89 128 181 80 342 341 86 288 80 64 159 256 54 78 57 41 154 169 190 179 173 170 169 158 142 115 122 125 140 138 137 134 133 129 124 125 120 117 117 115 115 116 116 108 103 101 97 93 87 82 78 76 74 74 73 73 73 74 75 75 76 77 78 81 83 83 83 81 78 77 76 76 75 74 73
241 9 35 301 352 30 173 171 140 141 39 341 131 143 169 162 149 144 140 160 141 239 337 247 330 144 183 165 345 310 68 185 84 160 251 99 20 6 122 182 194 178 171 172 172 171 147 131 134 146 150 145 136 135 134 135 120 123 123 119 117 118 119 117 113 110 106 108 105 99 93 86 83 80 77 75 75 76 76 76 75 75 75 77 80 80 82 84 81 76 76 76 76 74 72 71 70
276 191 50 95 110 256 324 43 81 106 92 330 35 125 162 155 141 144 146 161 165 188 163 262 211 198 201 130 192 241 17 0 216 75 279 31 343 343 186 181 201 177 170 172 174 167 145 131 139 134 139 147 143 142 141 139 133 127 127 123 116 112 114 113 109 107 110 109 106 100 93 88 84 82 80 79 78 79 79 80 79 79 78 77 80 82 83 82 83 80 75 74 73 71 72 71 70
132 252 28 211 76 285 132 58 89 281 94 293 10 38 141 153 145 172 160 193 157 218 162 195 231 281 44 296 210 106 130 236 326 10 17 352 339 292 198 175 188 173 178 170 169 158 121 150 121 97 110 156 148 147 144 142 143 139 135 131 118 114 114 112 112 114 116 112 110 106 99 92 86 84 82 81 81 82 83 83 82 82 81 80 80 82 84 85 82 81 79 76 76 75 75 74 73
22 52 239 189 141 53 152 150 40 51 50 199 219 288 344 154 181 179 171 181 68 230 161 183 182 239 121 178 261 93 165 163 258 3 342 304 245 230 183 187 187 170 175 172 167 165 159 123 137 67 91 156 150 153 148 144 147 147 139 134 128 123 120 119 117 118 117 116 111 109 105 95 90 87 86 85 84 85 85 85 84 83 83 82 83 84 85 85 86 85 80 79 78 76 75 74 74
84 303 144 52 83 164 116 141 217 121 93 103 282 154 178 173 178 235 177 183 189 159 125 71 199 284 115 198 157 176 140 137 145 188 225 242 221 197 181 188 183 174 158 183 176 167 159 135 135 97 78 47 166 161 153 147 152 147 143 138 129 117 123 124 122 123 121 116 113 110 106 100 95 93 91 91 90 89 88 88 87 86 86 86 86 87 88 89 89 88 83 80 78 76 75 74 74
130 60 359 185 184 149 219 139 201 148 180 133 227 193 172 170 179 174 204 94 107 194 131 183 190 212 196 184 309 55 83 148 183 178 160 200 199 181 173 192 190 193 166 172 169 170 165 163 143 120 76 6 75 188 153 146 151 151 135 120 124 129 128 128 126 124 123 122 119 113 110 105 100 98 94 92 91 90 91 91 91 90 89 90 90 90 90 90 90 86 83 81 78 76 75 74 73
151 178 190 192 205 247 165 190 165 138 146 193 155 157 174 173 193 184 188 204 167 181 183 184 117 132 201 221 171 133 125 180 187 134 157 189 173 171 172 194 220 194 185 162 169 168 173 163 172 132 94 5 44 108 164 151 146 144 131 130 129 132 133 130 129 128 128 126 122 120 114 107 101 99 95 93 92 92 91 92 92 92 92 92 92 91 90 91 91 87 84 82 79 77 75 73 71
17 299 169 203 84 240 67 200 145 86 197 199 167 144 150 174 191 205 179 243 163 180 205 193 69 251 214 204 64 131 184 172 139 135 155 193 155 162 176 169 192 223 181 172 169 166 193 180 169 165 132 123 131 93 82 133 145 143 137 134 128 123 131 132 131 128 125 126 123 118 110 101 100 99 96 93 93 93 92 92 93 93 93 94 94 94 92 92 90 88 85 82 79 77 75 73 71
217 287 197 194 20 108 176 90 96 200 202 133 85 118 174 190 201 327 162 203 190 209 61 98 159 188 265 291 160 186 183 146 139 164 213 176 150 155 162 159 144 112 128 148 85 142 182 194 173 169 170 179 173 135 112 83 144 143 133 131 126 128 132 127 124 121 121 119 113 110 107 101 100 99 99 96 94 92 94 93 93 94 96 96 96 95 94 92 91 89 87 84 81 77 75 73 70
88 231 74 101 127 192 157 198 183 204 179 151 132 152 172 246 29 194 207 227 180 58 107 337 324 221 111 203 138 169 150 148 159 176 163 166 142 144 139 133 124 121 122 94 117 94 127 179 179 182 180 173 186 194 174 132 113 140 132 129 128 129 112 107 105 107 114 115 112 111 106 101 96 97 97 98 93 90 89 89 91 95 97 97 96 95 94 93 92 90 88 85 82 79 76 74 70
92 156 84 174 160 220 159 219 308 221 179 158 131 116 177 96 232 190 201 336 68 71 218 166 210 275 343 299 46 66 109 135 153 159 160 158 141 137 141 154 137 99 102 158 116 73 101 151 156 181 188 187 181 182 195 173 134 159 140 134 126 118 114 110 108 106 111 110 111 114 111 109 107 103 105 101 94 92 91 93 93 96 96 97 96 95 93 92 90 89 87 86 83 80 75 70 68
220 272 170 156 204 209 149 195 162 202 110 137 128 174 183 173 140 305 346 268 211 156 203 190 192 142 288 28 59 99 104 121 143 160 157 157 166 148 159 165 145 114 100 158 144 122 96 100 133 168 171 190 195 194 198 186 139 159 145 129 122 116 114 111 108 109 112 116 121 124 130 122 122 121 118 109 106 99 97 95 97 98 98 97 97 95 93 91 89 87 87 86 83 81 77 70 63
249 194 199 205 71 200 157 191 187 26 189 159 175 190 195 175 169 150 178 179 257 127 224 172 226 238 240 85 95 109 124 160 167 164 176 174 177 166 166 173 180 174 174 172 118 137 127 96 163 123 156 175 172 193 207 189 159 202 171 149 135 125 120 123 129 130 131 132 134 147 141 132 135 127 112 115 110 111 103 99 101 102 102 99 98 96 93 91 89 89 87 83 81 79 85 84 75
205 107 229 240 168 94 181 179 154 179 101 152 158 167 234 162 163 159 213 188 193 218 221 209 234 216 169 167 151 163 159 171 181 184 183 187 188 187 181 177 187 183 188 184 164 152 144 145 150 151 162 150 167 190 206 201 187 181 180 169 139 138 139 142 141 139 147 147 157 155 150 146 141 136 128 105 104 92 103 105 102 102 102 99 96 95 93 92 91 88 84 80 77 78 76 74 71
47 241 201 237 172 66 239 177 150 17 83 140 159 160 228 96 189 121 229 184 175 226 217 193 227 227 198 167 163 165 172 181 191 191 195 196 196 192 189 187 188 180 188 185 160 136 161 157 125 151 157 175 192 189 194 207 197 183 187 176 158 151 154 157 152 156 161 163 163 161 159 140 137 116 97 112 116 116 97 92 96 95 95 95 100 95 92 91 91 82 74 77 74 66 68 70 67
116 231 234 86 105 201 124 218 73 105 333 140 150 106 203 150 163 190 188 228 231 238 234 230 222 225 188 160 164 169 177 186 196 203 201 203 201 198 196 194 197 187 190 138 150 157 154 163 159 158 165 167 202 203 196 197 201 195 191 185 175 162 158 158 159 164 165 168 163 163 156 137 132 127 135 138 132 128 126 125 122 122 122 119 121 111 112 115 106 94 81 71 69 65 65 65 64
155 13 13 54 131 175 63 174 75 156 340 148 135 167 193 94 162 217 200 225 237 229 227 217 244 259 155 165 169 167 182 189 198 205 205 201 201 196 196 191 155 164 131 187 179 159 170 164 180 173 199 172 182 207 204 201 205 197 196 192 181 163 164 165 169 163 165 167 169 161 157 149 137 142 150 144 137 137 141 142 134 134 131 126 127 118 113 109 104 95 84 78 72 69 65 67 65
168 98 263 247 351 37 54 149 160 192 166 166 174 170 95 183 208 211 227 232 234 63 56 2 308 48 78 159 153 175 186 195 198 204 204 201 202 204 195 194 186 182 177 194 172 170 167 182 172 214 220 188 182 197 175 198 216 204 199 184 180 178 171 172 171 166 171 164 169 165 163 168 158 154 149 145 141 141 140 142 135 136 135 125 118 113 109 105 100 93 86 84 81 77 74 73 72
297 123 143 156 248 9 4 97 124 199 195 186 68 82 198 158 229 133 227 235 249 112 98 74 30 58 162 163 176 184 190 195 202 205 205 207 203 204 197 192 187 170 181 187 185 183 184 187 181 197 208 213 191 192 198 184 216 219 199 179 189 175 173 178 175 172 173 174 175 176 184 171 168 157 156 152 150 139 138 136 131 131 122 110 110 109 110 100 94 90 88 88 89 82 78 76 77
141 132 189 120 233 1 266 275 170 203 223 49 198 184 184 211 277 357 247 235 238 231 157 209 161 171 183 193 187 195 195 200 206 203 203 209 206 204 204 201 186 182 198 190 187 190 188 184 191 203 203 214 218 209 220 179 197 229 210 187 202 165 179 174 180 171 177 180 177 182 193 180 171 158 156 157 142 129 115 113 110 104 99 87 102 103 105 107 99 96 93 93 90 91 84 76 76
360 67 137 137 136 66 112 136 174 249 162 192 187 205 94 58 311 262 256 241 184 71 208 194 198 203 196 206 201 197 200 201 200 200 204 201 196 198 204 210 197 205 207 196 187 203 191 188 202 209 208 216 223 231 232 214 189 206 218 199 193 170 180 180 173 174 184 185 181 183 188 191 179 162 156 147 134 121 116 105 96 100 110 107 109 111 115 115 113 105 102 100 101 96 88 84 86
44 116 103 131 58 128 77 256 125 263 284 188 241 205 129 129 250 261 117 32 347 199 214 179 213 221 207 210 212 212 210 205 196 192 187 194 196 205 200 198 203 211 205 201 199 199 193 205 222 230 225 218 230 229 231 228 210 222 217 173 214 190 181 172 173 193 195 180 180 183 182 184 177 169 149 143 130 134 134 132 125 119 99 75 97 109 109 108 110 108 111 113 108 101 94 89 89
57 112 152 148 113 107 112 103 109 253 194 182 273 271 152 160 200 246 134 105 4 221 220 209 212 226 216 217 220 219 222 211 193 190 198 193 200 198 195 192 197 199 199 207 204 196 194 212 220 223 229 221 221 224 225 226 224 227 214 195 178 275 214 181 180 189 194 193 183 181 185 182 177 166 156 154 152 152 149 143 135 132 121 106 115 114 116 101 98 98 98 100 102 101 99 93 88
95 229 222 161 308 197 97 185 106 299 172 176 128 269 228 179 229 239 107 129 148 248 249 225 222 225 226 227 226 223 219 211 201 208 213 208 200 194 197 193 188 191 197 198 194 187 205 208 219 223 229 231 225 226 222 222 222 217 210 200 186 193 179 185 181 180 187 183 178 175 189 179 178 163 157 155 156 150 143 143 144 133 129 133 126 121 116 107 108 110 105 104 99 95 94 91 87
249 74 350 253 230 242 89 139 79 214 106 61 248 269 241 205 225 227 119 119 173 258 246 231 227 222 226 223 229 230 219 210 213 217 213 209 199 193 199 188 189 188 183 181 183 196 194 197 204 221 227 230 229 225 219 219 219 215 203 185 191 192 184 171 199 178 180 177 176 175 169 189 173 166 156 155 154 150 147 149 148 143 140 137 131 129 124 123 116 116 116 109 102 100 101 98 95
220 34 264 323 287 211 100 55 104 214 86 223 239 259 265 148 219 157 59 254 246 263 258 235 225 226 227 228 231 233 226 218 222 220 218 212 202 197 204 192 188 194 183 187 191 193 190 195 199 215 214 224 218 218 212 215 214 192 183 184 183 186 182 172 184 200 182 181 171 172 176 179 176 171 159 154 154 148 156 156 153 145 132 137 139 146 136 127 123 123 124 116 108 101 96 93 92
18 239 209 141 244 170 150 139 196 239 107 244 202 262 263 276 288 79 35 252 224 251 263 259 243 236 233 236 237 238 236 220 225 229 220 214 207 205 201 199 189 194 197 192 190 190 196 196 196 208 202 207 207 202 202 199 183 173 156 163 174 165 162 171 159 190 164 170 167 168 168 165 167 159 155 147 139 136 134 130 132 140 141 145 148 147 139 129 125 118 112 117 115 107 104 98 93
25 264 280 198 291 321 303 122 17 9 109 210 223 265 333 247 342 68 71 178 217 257 266 263 254 247 242 240 238 242 241 227 223 225 219 208 208 205 201 200 194 194 194 191 190 189 197 193 197 201 198 199 190 179 176 175 174 160 140 140 159 155 154 151 148 154 172 149 149 143 151 160 159 147 124 132 145 141 136 134 137 148 148 146 142 135 114 114 123 121 111 108 116 116 108 105 101
204 77 254 79 252 254 249 113 109 90 253 203 225 252 254 269 209 169 136 156 202 252 263 260 250 239 234 242 242 242 239 235 225 214 211 203 202 201 202 201 197 194 194 195 194 192 193 188 196 197 195 189 183 179 166 144 141 126 118 120 104 96 97 92 113 137 134 144 139 134 147 149 144 150 141 131 130 137 134 135 139 147 143 140 139 130 114 102 117 122 116 115 122 122 119 116 111
184 179 222 213 219 239 281 283 92 206 127 257 224 239 262 266 271 265 237 178 249 264 263 267 265 252 238 232 240 240 238 233 234 216 199 193 196 196 200 197 199 195 194 193 193 193 192 192 192 183 184 179 164 146 118 120 123 110 90 105 117 123 111 101 104 134 121 122 132 131 133 138 139 135 130 129 121 129 131 131 139 135 123 122 119 118 113 113 115 120 123 126 121 115 120 116 113
161 179 211 306 257 208 241 247 91 254 230 237 235 246 259 263 266 268 264 200 241 260 267 267 262 255 250 246 243 238 232 237 233 192 182 185 193 189 192 192 196 194 192 190 191 192 194 191 186 181 188 174 154 145 143 140 143 143 125 98 126 134 126 125 89 86 134 124 126 135 125 125 117 129 128 123 129 127 129 132 129 133 134 130 133 128 132 132 132 128 129 129 119 109 109 117 120
86 85 157 267 274 274 262 232 92 158 273 249 249 252 259 268 272 276 278 270 255 260 259 255 252 248 243 243 244 241 234 238 144 186 190 190 188 190 190 189 192 191 192 191 191 192 194 181 183 184 181 161 164 159 164 159 159 144 145 161 156 153 141 128 121 92 103 116 137 131 126 136 131 127 132 137 137 138 133 130 124 123 127 135 134 137 141 137 138 131 128 126 128 125 125 133 131
200 155 242 239 197 263 289 313 90 162 227 279 235 261 263 267 272 271 273 268 263 259 259 256 253 245 241 243 249 244 240 202 158 189 190 189 192 192 189 189 188 189 194 191 194 190 192 194 193 187 177 173 172 169 166 172 172 164 164 164 144 144 140 148 138 127 47 85 118 122 119 126 130 136 149 149 142 140 139 143 142 141 140 138 134 139 137 135 139 136 137 123 127 131 135 150 152
139 248 206 271 254 268 277 265 81 204 198 266 279 278 273 271 270 266 257 254 254 248 242 253 264 267 255 244 243 249 228 234 199 214 188 193 192 191 192 193 194 196 189 190 192 187 191 195 195 186 173 177 176 176 173 177 164 116 156 143 148 120 46 66 83 92 111 104 89 85 99 123 131 129 146 154 149 144 147 150 148 143 146 141 138 144 144 148 149 148 152 142 137 131 132 139 167
204 188 208 239 71 303 279 123 63 151 222 313 329 296 280 274 258 252 249 245 255 258 256 256 253 258 258 253 249 245 243 235 221 204 195 190 190 191 194 196 195 193 191 189 190 195 195 197 197 178 176 180 179 175 176 135 107 92 81 95 78 74 133 104 93 86 92 100 94 75 81 113 114 123 124 135 142 138 142 140 133 132 136 152 147 150 157 155 154 156 154 148 140 139 157 171 256
207 217 227 246 220 229 234 321 318 192 241 337 282 273 263 239 253 252 249 254 260 264 261 256 249 242 250 264 273 256 258 244 231 209 188 186 191 197 197 195 190 192 192 190 191 195 202 198 193 183 173 179 175 167 145 132 121 105 97 87 89 92 84 105 114 103 98 108 111 107 100 66 119 134 139 149 152 134 120 138 142 140 149 162 156 153 162 162 162 162 154 152 162 152 158 158 181
212 208 221 237 241 256 228 330 329 291 258 95 340 316 273 165 241 259 285 277 262 235 234 249 248 242 241 250 254 255 236 238 242 230 199 191 195 194 193 191 193 195 196 193 192 199 203 198 193 185 173 178 173 162 151 150 154 144 147 148 155 156 144 158 170 166 167 169 160 135 114 123 130 134 143 150 150 145 137 151 144 149 155 161 166 161 157 154 162 162 165 162 165 172 153 155 154
248 232 203 232 245 254 265 233 289 259 264 109 306 351 290 200 241 233 236 260 266 251 225 254 258 244 220 236 249 241 238 234 226 234 209 186 192 188 191 193 194 196 197 187 190 201 205 194 195 184 176 173 164 159 161 162 160 166 166 165 159 162 157 178 174 165 151 142 139 148 141 142 146 147 146 158 156 159 139 151 148 159 162 161 158 155 159 165 163 164 165 171 167 158 159 157 162
230 82 150 159 195 219 232 220 224 270 356 276 175 231 283 286 230 225 237 252 266 278 276 267 260 255 238 242 246 242 232 225 220 217 216 201 188 189 193 194 192 197 188 185 195 202 203 199 193 191 178 171 162 164 172 176 168 171 172 171 170 173 174 164 162 150 120 124 135 133 139 143 147 148 151 156 152 154 147 145 149 154 157 154 153 163 160 159 160 156 166 164 158 166 174 166 161
50 110 200 143 176 176 151 203 236 299 347 286 153 155 263 267 106 21 212 247 253 261 264 263 263 255 240 253 249 240 233 225 220 214 208 197 194 195 194 191 193 189 185 186 195 203 200 197 184 179 182 172 169 173 178 180 176 179 177 170 174 173 163 139 129 127 139 151 137 130 129 130 137 132 144 157 153 150 147 151 154 158 158 160 165 165 161 158 162 162 167 167 175 179 187 172 159
133 121 91 90 88 78 157 156 243 243 293 267 151 185 248 276 145 162 264 238 253 251 251 257 262 276 253 253 249 230 221 220 221 228 214 198 193 192 191 186 184 189 186 183 197 202 200 195 178 182 181 172 172 177 181 185 187 187 180 174 172 159 128 126 136 142 145 155 141 140 136 138 140 140 154 164 151 147 147 146 154 164 166 164 168 160 147 154 159 166 174 178 180 181 184 173 173
123 160 113 96 79 91 110 64 18 289 252 258 166 192 212 281 155 190 177 201 210 233 248 259 268 273 255 235 238 221 207 196 202 206 205 192 185 182 178 185 185 183 182 189 199 200 200 198 183 188 185 171 172 178 178 185 190 199 185 175 168 154 150 147 144 149 146 154 155 155 156 148 148 152 170 166 157 142 150 158 163 167 162 157 155 152 166 167 168 173 177 179 181 181 176 166 142
158 158 146 146 167 149 197 164 147 243 267 103 343 208 214 240 225 225 210 330 244 233 242 251 266 265 267 355 263 229 209 189 181 190 189 179 169 181 182 189 187 186 180 191 200 200 198 197 184 186 181 177 175 179 181 183 187 196 187 176 163 167 157 161 162 162 170 170 167 160 158 151 152 158 181 168 162 147 155 164 153 148 155 161 163 167 167 169 169 170 172 178 177 163 132 146 150
228 150 160 186 217 63 226 177 217 196 245 93 25 113 288 238 246 319 274 256 242 232 239 250 263 276 258 219 248 267 328 214 207 196 182 185 189 184 189 190 185 189 188 194 198 200 200 197 188 192 189 183 180 179 185 185 184 187 190 180 171 174 177 175 170 165 171 172 169 158 160 166 155 170 188 180 168 154 156 154 159 168 169 172 168 166 163 158 159 164 165 153 132 143 156 151 152
192 187 176 187 227 219 260 208 321 312 278 105 191 137 254 301 279 234 243 234 231 228 233 244 255 262 265 231 239 227 217 241 228 198 198 199 194 189 188 188 189 190 188 193 197 198 199 199 194 194 197 180 170 182 185 185 188 187 182 178 170 170 183 186 184 167 167 170 171 168 169 167 172 185 178 180 162 150 158 166 165 167 168 160 154 148 146 147 146 153 133 128 120 120 117 106 99
202 195 184 210 188 182 218 195 234 251 293 114 221 171 237 162 154 256 241 250 245 236 252 248 250 258 266 278 269 264 258 239 216 219 212 203 197 190 187 189 190 190 188 193 197 199 198 199 197 195 196 177 175 182 185 186 185 182 177 180 167 172 182 184 186 185 184 170 175 176 171 163 172 176 174 154 151 154 154 159 164 157 150 150 148 141 135 139 132 117 118 109 102 98 96 94 97
179 179 20 287 227 87 253 317 288 344 329 269 159 230 269 230 12 272 236 293 261 237 257 264 262 257 259 272 256 236 221 230 228 222 217 211 199 191 190 191 192 190 189 191 199 197 199 199 197 198 198 183 178 182 190 191 183 178 177 176 178 177 178 177 182 171 194 171 176 181 171 167 171 163 157 143 152 150 153 155 150 148 147 142 140 137 139 136 128 122 113 111 100 81 107 102 111
167 147 212 201 8 206 192 95 82 127 258 260 152 265 251 283 252 220 233 224 238 240 244 245 250 253 250 259 271 265 224 212 210 218 220 208 197 198 196 193 191 190 189 193 199 199 198 196 196 197 199 189 179 184 190 189 174 174 182 178 178 177 179 185 184 181 187 179 163 181 169 166 159 157 145 142 147 147 150 151 150 144 142 135 131 132 128 122 120 117 119 120 120 125 119 121 125
104 211 204 71 112 1 198 243 143 210 251 276 134 259 282 272 291 82 170 234 244 234 235 234 241 248 236 246 250 264 270 181 208 220 221 212 202 199 197 199 197 194 192 192 199 201 201 199 196 195 198 190 182 182 186 184 175 179 176 180 178 179 179 189 184 174 171 170 173 177 157 157 166 151 148 148 146 146 142 147 139 139 132 134 131 127 120 122 121 116 122 124 131 134 124 118 112
290 334 143 179 201 209 184 218 248 216 233 274 236 267 265 219 254 155 155 190 228 236 232 233 246 245 237 246 243 251 261 229 220 221 213 209 203 200 198 196 197 197 195 196 196 201 202 201 200 199 199 196 178 178 182 178 174 187 187 175 174 177 176 173 170 162 159 170 174 177 173 169 148 148 155 154 146 145 147 144 138 136 137 134 130 128 129 128 131 130 133 130 136 136 127 121 116
28 78 199 4 324 250 159 207 297 219 265 111 273 151 277 204 222 177 212 186 206 211 213 225 230 229 231 238 245 244 236 226 228 211 209 209 208 204 198 194 193 192 191 194 199 203 203 201 200 200 201 192 174 179 174 180 181 178 177 173 178 177 172 162 151 159 173 182 179 175 168 161 162 158 164 163 154 150 150 146 145 140 138 133 131 134 140 140 140 138 137 134 138 133 121 122 126
182 203 199 172 212 345 331 2 206 229 236 242 298 295 259 264 151 180 193 190 200 213 217 211 246 247 238 237 233 226 217 200 182 190 189 199 202 198 197 197 194 193 193 196 203 205 203 200 202 200 199 185 179 181 179 184 175 184 177 183 175 175 172 153 155 173 182 185 177 175 172 164 152 167 162 167 155 147 146 143 139 139 138 140 141 145 148 147 138 130 122 123 131 129 127 128 135
183 182 195 188 160 176 179 223 92 237 212 228 193 252 275 141 262 160 183 193 196 212 214 182 221 237 208 233 257 264 276 248 189 186 180 194 197 195 194 190 188 188 194 200 202 203 203 206 204 192 200 190 184 186 186 182 179 180 180 177 178 178 169 166 168 170 179 175 173 174 166 155 168 162 162 163 153 138 139 137 134 138 143 144 145 144 146 143 135 130 125 123 136 136 136 136 143